Time,TemperatureF,DewpointF,PressureIn,WindDirection,WindDirectionDegrees,WindSpeedMPH,WindSpeedGustMPH,Humidity,HourlyPrecipIn,Conditions,Clouds,dailyrainin,SolarRadiationWatts/m^2,SoftwareType,DateUTC
2013-05-16 00:01:00,63.5,49.0,29.74,WSW,257,2.0,-999.0,59,-99.99,,,0.00,0,weatherlink.com 1.10,2013-05-16 05:01:00,
2013-05-16 00:15:00,63.2,48.0,29.75,West,260,0.0,-999.0,59,-99.99,,,0.00,0,weatherlink.com 1.10,2013-05-16 05:15:00,
2013-05-16 00:30:00,62.7,48.0,29.76,WSW,244,1.0,-999.0,60,-99.99,,,0.00,0,weatherlink.com 1.10,2013-05-16 05:30:00,
2013-05-16 00:45:00,62.5,48.0,29.76,SW,232,3.0,-999.0,60,-99.99,,,0.00,0,weatherlink.com 1.10,2013-05-16 05:45:00,
2013-05-16 01:01:00,62.5,49.0,29.76,WSW,244,2.0,-999.0,61,-99.99,,,0.00,0,weatherlink.com 1.10,2013-05-16 06:01:00,
2013-05-16 01:15:00,62.5,49.0,29.75,West,260,1.0,-999.0,61,-99.99,,,0.00,0,weatherlink.com 1.10,2013-05-16 06:15:00,
2013-05-16 01:31:00,61.6,49.0,29.75,West,260,1.0,-999.0,63,-99.99,,,0.00,0,weatherlink.com 1.10,2013-05-16 06:31:00,
2013-05-16 01:46:00,61.3,48.0,29.75,West,260,1.0,-999.0,63,-99.99,,,0.00,0,weatherlink.com 1.10,2013-05-16 06:46:00,
2013-05-16 02:00:00,60.2,48.0,29.76,West,260,0.0,-999.0,65,-99.99,,,0.00,0,weatherlink.com 1.10,2013-05-16 07:00:00,
2013-05-16 02:16:00,59.5,48.0,29.75,West,260,0.0,-999.0,67,-99.99,,,0.00,0,weatherlink.com 1.10,2013-05-16 07:16:00,
2013-05-16 02:31:00,58.5,48.0,29.76,West,260,0.0,-999.0,69,-99.99,,,0.00,0,weatherlink.com 1.10,2013-05-16 07:31:00,
2013-05-16 02:46:00,58.4,48.0,29.76,West,260,0.0,-999.0,69,-99.99,,,0.00,0,weatherlink.com 1.10,2013-05-16 07:46:00,
2013-05-16 03:02:00,57.5,47.0,29.76,West,260,0.0,-999.0,69,-99.99,,,0.00,0,weatherlink.com 1.10,2013-05-16 08:02:00,
2013-05-16 03:16:00,56.8,48.0,29.76,West,260,0.0,-999.0,72,-99.99,,,0.00,0,weatherlink.com 1.10,2013-05-16 08:16:00,
2013-05-16 03:32:00,56.3,48.0,29.77,West,260,0.0,-999.0,73,-99.99,,,0.00,0,weatherlink.com 1.10,2013-05-16 08:32:00,
2013-05-16 03:47:00,56.2,48.0,29.77,West,260,0.0,-999.0,73,-99.99,,,0.00,0,weatherlink.com 1.10,2013-05-16 08:47:00,
2013-05-16 04:01:00,56.0,47.0,29.77,West,260,0.0,-999.0,73,-99.99,,,0.00,0,weatherlink.com 1.10,2013-05-16 09:01:00,
2013-05-16 04:17:00,55.5,47.0,29.77,West,260,0.0,-999.0,74,-99.99,,,0.00,0,weatherlink.com 1.10,2013-05-16 09:17:00,
2013-05-16 04:32:00,55.0,47.0,29.77,West,260,0.0,-999.0,75,-99.99,,,0.00,0,weatherlink.com 1.10,2013-05-16 09:32:00,
2013-05-16 04:50:00,53.8,47.0,29.77,West,260,0.0,-999.0,77,-99.99,,,0.00,0,weatherlink.com 1.10,2013-05-16 09:50:00,
2013-05-16 05:02:00,54.4,47.0,29.78,West,260,0.0,-999.0,75,-99.99,,,0.00,0,weatherlink.com 1.10,2013-05-16 10:02:00,
2013-05-16 05:20:00,52.7,46.0,29.79,West,260,0.0,-999.0,77,-99.99,,,0.00,0,weatherlink.com 1.10,2013-05-16 10:20:00,
2013-05-16 05:35:00,51.2,45.0,29.79,West,260,0.0,-999.0,79,-99.99,,,0.00,0,weatherlink.com 1.10,2013-05-16 10:35:00,
2013-05-16 05:50:00,50.3,45.0,29.79,West,260,0.0,-999.0,82,-99.99,,,0.00,5,weatherlink.com 1.10,2013-05-16 10:50:00,
2013-05-16 06:04:00,51.3,46.0,29.79,West,260,0.0,-999.0,81,-99.99,,,0.00,18,weatherlink.com 1.10,2013-05-16 11:04:00,
2013-05-16 06:20:00,51.5,45.0,29.80,West,260,0.0,-999.0,79,-99.99,,,0.00,26,weatherlink.com 1.10,2013-05-16 11:20:00,
2013-05-16 06:35:00,52.8,46.0,29.80,West,260,0.0,-999.0,78,-99.99,,,0.00,40,weatherlink.com 1.10,2013-05-16 11:35:00,
2013-05-16 06:50:00,54.6,46.0,29.81,West,260,1.0,-999.0,72,-99.99,,,0.00,44,weatherlink.com 1.10,2013-05-16 11:50:00,
2013-05-16 07:05:00,56.3,46.0,29.81,NW,315,2.0,-999.0,68,-99.99,,,0.00,79,weatherlink.com 1.10,2013-05-16 12:05:00,
2013-05-16 07:20:00,57.6,46.0,29.82,NNE,30,2.0,-999.0,65,-99.99,,,0.00,102,weatherlink.com 1.10,2013-05-16 12:20:00,
2013-05-16 07:35:00,58.9,46.0,29.82,NNE,28,1.0,-999.0,62,-99.99,,,0.00,70,weatherlink.com 1.10,2013-05-16 12:35:00,
2013-05-16 07:50:00,60.0,44.0,29.82,NE,37,2.0,-999.0,57,-99.99,,,0.00,220,weatherlink.com 1.10,2013-05-16 12:50:00,
2013-05-16 08:05:00,60.8,46.0,29.83,NE,34,2.0,-999.0,58,-99.99,,,0.00,269,weatherlink.com 1.10,2013-05-16 13:05:00,
2013-05-16 08:20:00,61.8,47.0,29.83,NE,36,1.0,-999.0,58,-99.99,,,0.00,120,weatherlink.com 1.10,2013-05-16 13:20:00,
2013-05-16 08:35:00,62.7,47.0,29.83,NE,40,1.0,-999.0,56,-99.99,,,0.00,148,weatherlink.com 1.10,2013-05-16 13:35:00,
2013-05-16 08:50:00,63.2,46.0,29.83,NE,40,2.0,-999.0,54,-99.99,,,0.00,163,weatherlink.com 1.10,2013-05-16 13:50:00,
2013-05-16 09:05:00,65.0,47.0,29.83,NE,43,3.0,-999.0,52,-99.99,,,0.00,485,weatherlink.com 1.10,2013-05-16 14:05:00,
2013-05-16 09:20:00,66.7,47.0,29.84,NE,42,1.0,-999.0,50,-99.99,,,0.00,541,weatherlink.com 1.10,2013-05-16 14:20:00,
2013-05-16 09:35:00,69.4,50.0,29.84,NNE,30,1.0,-999.0,51,-99.99,,,0.00,580,weatherlink.com 1.10,2013-05-16 14:35:00,
2013-05-16 09:50:00,71.0,47.0,29.84,NE,36,1.0,-999.0,42,-99.99,,,0.00,636,weatherlink.com 1.10,2013-05-16 14:50:00,
2013-05-16 10:05:00,72.9,47.0,29.84,NE,55,1.0,-999.0,40,-99.99,,,0.00,631,weatherlink.com 1.10,2013-05-16 15:05:00,
2013-05-16 10:20:00,74.6,49.0,29.83,NE,47,1.0,-999.0,40,-99.99,,,0.00,547,weatherlink.com 1.10,2013-05-16 15:20:00,
2013-05-16 10:36:00,75.0,46.0,29.83,NE,46,2.0,-999.0,36,-99.99,,,0.00,694,weatherlink.com 1.10,2013-05-16 15:36:00,
2013-05-16 10:51:00,76.2,49.0,29.83,WNW,290,3.0,-999.0,39,-99.99,,,0.00,784,weatherlink.com 1.10,2013-05-16 15:51:00,
2013-05-16 11:06:00,76.2,47.0,29.82,ENE,66,7.0,-999.0,35,-99.99,,,0.00,766,weatherlink.com 1.10,2013-05-16 16:06:00,
2013-05-16 11:21:00,76.8,46.0,29.82,NNE,32,4.0,-999.0,34,-99.99,,,0.00,814,weatherlink.com 1.10,2013-05-16 16:21:00,
2013-05-16 11:36:00,77.2,46.0,29.82,ENE,60,2.0,-999.0,33,-99.99,,,0.00,803,weatherlink.com 1.10,2013-05-16 16:36:00,
2013-05-16 11:52:00,77.1,49.0,29.81,East,92,1.0,-999.0,37,-99.99,,,0.00,513,weatherlink.com 1.10,2013-05-16 16:52:00,
2013-05-16 12:05:00,77.4,48.0,29.81,East,96,2.0,-999.0,36,-99.99,,,0.00,786,weatherlink.com 1.10,2013-05-16 17:05:00,
2013-05-16 12:21:00,78.0,49.0,29.80,ENE,62,3.0,-999.0,36,-99.99,,,0.00,461,weatherlink.com 1.10,2013-05-16 17:21:00,
2013-05-16 12:36:00,77.8,48.0,29.80,ENE,61,1.0,-999.0,35,-99.99,,,0.00,798,weatherlink.com 1.10,2013-05-16 17:36:00,
2013-05-16 12:51:00,78.1,46.0,29.79,NNE,30,3.0,-999.0,32,-99.99,,,0.00,835,weatherlink.com 1.10,2013-05-16 17:51:00,
2013-05-16 13:07:00,79.2,47.0,29.80,ENE,59,2.0,-999.0,32,-99.99,,,0.00,861,weatherlink.com 1.10,2013-05-16 18:07:00,
2013-05-16 13:22:00,79.4,44.0,29.80,NE,34,8.0,-999.0,29,-99.99,,,0.00,881,weatherlink.com 1.10,2013-05-16 18:22:00,
2013-05-16 13:37:00,79.8,50.0,29.79,ENE,57,1.0,-999.0,35,-99.99,,,0.00,833,weatherlink.com 1.10,2013-05-16 18:37:00,
2013-05-16 13:52:00,79.8,45.0,29.79,NE,43,5.0,-999.0,29,-99.99,,,0.00,891,weatherlink.com 1.10,2013-05-16 18:52:00,
2013-05-16 14:07:00,80.4,46.0,29.79,NE,54,3.0,-999.0,30,-99.99,,,0.00,803,weatherlink.com 1.10,2013-05-16 19:07:00,
2013-05-16 14:22:00,80.4,47.0,29.79,ENE,60,1.0,-999.0,31,-99.99,,,0.00,626,weatherlink.com 1.10,2013-05-16 19:22:00,
2013-05-16 14:37:00,80.8,47.0,29.79,ENE,68,0.0,-999.0,30,-99.99,,,0.00,791,weatherlink.com 1.10,2013-05-16 19:37:00,
2013-05-16 14:52:00,80.5,48.0,29.78,SSE,165,5.0,-999.0,32,-99.99,,,0.00,657,weatherlink.com 1.10,2013-05-16 19:52:00,
2013-05-16 15:08:00,81.1,48.0,29.77,East,82,0.0,-999.0,31,-99.99,,,0.00,656,weatherlink.com 1.10,2013-05-16 20:08:00,
2013-05-16 15:38:00,81.2,47.0,29.78,ESE,119,2.0,-999.0,30,-99.99,,,0.00,483,weatherlink.com 1.10,2013-05-16 20:38:00,
2013-05-16 15:53:00,79.6,48.0,29.78,NW,309,0.0,-999.0,33,-99.99,,,0.00,533,weatherlink.com 1.10,2013-05-16 20:53:00,
2013-05-16 16:07:00,81.0,46.0,29.78,NNE,33,0.0,-999.0,29,-99.99,,,0.00,555,weatherlink.com 1.10,2013-05-16 21:07:00,
2013-05-16 16:22:00,81.5,52.0,29.77,NW,319,0.0,-999.0,36,-99.99,,,0.00,483,weatherlink.com 1.10,2013-05-16 21:22:00,
2013-05-16 16:37:00,80.8,45.0,29.77,East,96,1.0,-999.0,28,-99.99,,,0.00,480,weatherlink.com 1.10,2013-05-16 21:37:00,
2013-05-16 16:53:00,79.8,45.0,29.77,NE,54,1.0,-999.0,29,-99.99,,,0.00,320,weatherlink.com 1.10,2013-05-16 21:53:00,
2013-05-16 17:08:00,79.8,45.0,29.76,NNW,341,2.0,-999.0,29,-99.99,,,0.00,299,weatherlink.com 1.10,2013-05-16 22:08:00,
2013-05-16 17:23:00,79.4,49.0,29.76,NE,34,0.0,-999.0,35,-99.99,,,0.00,244,weatherlink.com 1.10,2013-05-16 22:23:00,
2013-05-16 17:38:00,78.5,45.0,29.76,NE,49,2.0,-999.0,31,-99.99,,,0.00,204,weatherlink.com 1.10,2013-05-16 22:38:00,
2013-05-16 17:53:00,78.3,45.0,29.76,ENE,78,1.0,-999.0,31,-99.99,,,0.00,156,weatherlink.com 1.10,2013-05-16 22:53:00,
2013-05-16 18:08:00,77.8,45.0,29.75,ENE,57,0.0,-999.0,31,-99.99,,,0.00,160,weatherlink.com 1.10,2013-05-16 23:08:00,
2013-05-16 18:23:00,77.8,45.0,29.75,NE,53,0.0,-999.0,31,-99.99,,,0.00,130,weatherlink.com 1.10,2013-05-16 23:23:00,
2013-05-16 18:38:00,77.4,44.0,29.75,East,82,0.0,-999.0,30,-99.99,,,0.00,97,weatherlink.com 1.10,2013-05-16 23:38:00,
2013-05-16 18:54:00,77.0,46.0,29.75,ESE,112,0.0,-999.0,33,-99.99,,,0.00,95,weatherlink.com 1.10,2013-05-16 23:54:00,
2013-05-16 19:08:00,76.4,46.0,29.76,East,101,0.0,-999.0,34,-99.99,,,0.00,79,weatherlink.com 1.10,2013-05-17 00:08:00,
2013-05-16 19:24:00,75.7,46.0,29.76,East,101,1.0,-999.0,35,-99.99,,,0.00,53,weatherlink.com 1.10,2013-05-17 00:24:00,
2013-05-16 19:39:00,74.9,45.0,29.76,NNE,32,1.0,-999.0,35,-99.99,,,0.00,35,weatherlink.com 1.10,2013-05-17 00:39:00,
2013-05-16 19:54:00,74.1,48.0,29.77,ESE,103,0.0,-999.0,39,-99.99,,,0.00,23,weatherlink.com 1.10,2013-05-17 00:54:00,
2013-05-16 20:09:00,73.6,46.0,29.77,ESE,103,0.0,-999.0,38,-99.99,,,0.00,11,weatherlink.com 1.10,2013-05-17 01:09:00,
2013-05-16 20:24:00,73.1,46.0,29.77,ESE,103,0.0,-999.0,38,-99.99,,,0.00,5,weatherlink.com 1.10,2013-05-17 01:24:00,
2013-05-16 20:39:00,73.3,45.0,29.77,ESE,103,0.0,-999.0,37,-99.99,,,0.00,0,weatherlink.com 1.10,2013-05-17 01:39:00,
2013-05-16 20:54:00,72.4,44.0,29.78,ENE,67,1.0,-999.0,36,-99.99,,,0.00,0,weatherlink.com 1.10,2013-05-17 01:54:00,
2013-05-16 21:09:00,72.5,43.0,29.78,ENE,59,1.0,-999.0,35,-99.99,,,0.00,0,weatherlink.com 1.10,2013-05-17 02:09:00,
2013-05-16 21:24:00,72.2,41.0,29.78,NE,54,2.0,-999.0,33,-99.99,,,0.00,0,weatherlink.com 1.10,2013-05-17 02:24:00,
2013-05-16 21:39:00,72.1,39.0,29.79,NE,38,2.0,-999.0,30,-99.99,,,0.00,0,weatherlink.com 1.10,2013-05-17 02:39:00,
2013-05-16 21:55:00,71.5,39.0,29.79,ENE,64,2.0,-999.0,31,-99.99,,,0.00,0,weatherlink.com 1.10,2013-05-17 02:55:00,
2013-05-16 22:10:00,71.0,37.0,29.79,ENE,76,1.0,-999.0,29,-99.99,,,0.00,0,weatherlink.com 1.10,2013-05-17 03:10:00,
2013-05-16 22:24:00,70.4,37.0,29.79,NW,307,3.0,-999.0,29,-99.99,,,0.00,0,weatherlink.com 1.10,2013-05-17 03:24:00,
2013-05-16 22:39:00,69.7,38.0,29.79,NE,53,1.0,-999.0,31,-99.99,,,0.00,0,weatherlink.com 1.10,2013-05-17 03:39:00,
2013-05-16 22:56:00,69.1,38.0,29.79,ENE,74,1.0,-999.0,32,-99.99,,,0.00,0,weatherlink.com 1.10,2013-05-17 03:56:00,
2013-05-16 23:10:00,68.8,37.0,29.79,East,82,1.0,-999.0,31,-99.99,,,0.00,0,weatherlink.com 1.10,2013-05-17 04:10:00,
2013-05-16 23:26:00,68.4,38.0,29.81,South,180,1.0,-999.0,33,-99.99,,,0.00,0,weatherlink.com 1.10,2013-05-17 04:26:00,
2013-05-16 23:40:00,67.6,40.0,29.83,ESE,108,0.0,-999.0,36,-99.99,,,0.00,0,weatherlink.com 1.10,2013-05-17 04:40:00,
2013-05-16 23:56:00,65.7,39.0,29.81,ENE,76,1.0,-999.0,38,-99.99,,,0.00,0,weatherlink.com 1.10,2013-05-17 04:56:00,